TimeEDT,TemperatureF,Dew PointF,Humidity,Sea Level PressureIn,VisibilityMPH,Wind Direction,Wind SpeedMPH,Gust SpeedMPH,PrecipitationIn,Events,Conditions,WindDirDegrees,DateUTC
12:54 AM,50.0,45.0,83,30.08,10.0,Calm,Calm,-,N/A,,Clear,0,2013-09-24 04:54:00
1:54 AM,48.9,44.1,83,30.08,10.0,Calm,Calm,-,N/A,,Clear,0,2013-09-24 05:54:00
2:54 AM,48.9,45.0,86,30.08,10.0,Calm,Calm,-,N/A,,Clear,0,2013-09-24 06:54:00
3:54 AM,48.0,44.1,86,30.08,10.0,Calm,Calm,-,N/A,,Clear,0,2013-09-24 07:54:00
4:54 AM,48.9,44.1,83,30.08,10.0,NNW,4.6,-,N/A,,Clear,330,2013-09-24 08:54:00
5:54 AM,48.0,43.0,83,30.09,10.0,NNW,3.5,-,N/A,,Clear,340,2013-09-24 09:54:00
6:54 AM,48.9,43.0,80,30.09,10.0,Calm,Calm,-,N/A,,Clear,0,2013-09-24 10:54:00
7:54 AM,52.0,45.0,77,30.10,10.0,North,4.6,-,N/A,,Clear,360,2013-09-24 11:54:00
8:54 AM,55.9,45.0,67,30.10,10.0,North,8.1,-,N/A,,Clear,360,2013-09-24 12:54:00
9:54 AM,60.1,45.0,57,30.09,10.0,North,6.9,-,N/A,,Clear,360,2013-09-24 13:54:00
10:54 AM,63.0,44.1,50,30.09,10.0,NW,10.4,-,N/A,,Clear,320,2013-09-24 14:54:00
11:54 AM,66.0,45.0,47,30.07,10.0,WNW,8.1,17.3,N/A,,Clear,300,2013-09-24 15:54:00
12:54 PM,69.1,44.1,40,30.04,10.0,NW,12.7,-,N/A,,Clear,320,2013-09-24 16:54:00
1:54 PM,71.1,43.0,36,30.01,10.0,NW,9.2,-,N/A,,Clear,320,2013-09-24 17:54:00
2:54 PM,72.0,43.0,35,29.99,10.0,WNW,11.5,17.3,N/A,,Clear,290,2013-09-24 18:54:00
3:54 PM,71.1,41.0,34,29.97,10.0,West,10.4,17.3,N/A,,Clear,280,2013-09-24 19:54:00
4:54 PM,72.0,39.9,31,29.96,10.0,NNW,12.7,-,N/A,,Clear,330,2013-09-24 20:54:00
5:54 PM,69.1,44.1,40,29.95,10.0,West,5.8,-,N/A,,Clear,280,2013-09-24 21:54:00
6:54 PM,63.0,48.0,58,29.96,10.0,West,3.5,-,N/A,,Clear,260,2013-09-24 22:54:00
7:54 PM,57.9,50.0,75,29.97,10.0,Calm,Calm,-,N/A,,Clear,0,2013-09-24 23:54:00
8:54 PM,55.0,48.9,80,29.97,10.0,Calm,Calm,-,N/A,,Clear,0,2013-09-25 00:54:00
9:54 PM,54.0,48.9,83,29.97,10.0,Calm,Calm,-,N/A,,Clear,0,2013-09-25 01:54:00
10:54 PM,51.1,46.0,83,29.96,10.0,Calm,Calm,-,N/A,,Clear,0,2013-09-25 02:54:00
11:54 PM,51.1,46.9,86,29.96,10.0,Calm,Calm,-,N/A,,Clear,0,2013-09-25 03:54:00